Terminal Aerodrome Forecast
Issued by NWS Green Bay, WI

Home | Current Version | Previous Version | Text Only | Print | Product List | Glossary Off
Versions: 1 2 3 4 5 6 7 8 9 10 11 12 13 14 15 16 17 18 19 20 21 22 23 24 25

658
FTUS43 KGRB 181136
TAFGRB
TAF
KGRB 181136Z 1812/1912 23010KT P6SM SCT120 BKN250 WS020/29030KT
     FM181700 24012G18KT P6SM SCT120
     FM190000 23007KT P6SM SKC=

USA.gov is the U.S. government's official web portal to all federal, state and local government web resources and services.